TimeMST,TemperatureF,Dew PointF,Humidity,Sea Level PressureIn,VisibilityMPH,Wind Direction,Wind SpeedMPH,Gust SpeedMPH,PrecipitationIn,Events,Conditions,WindDirDegrees,DateUTC
12:53 AM,10.0,8.1,92,29.99,10.0,Calm,Calm,-,N/A,,Clear,0,2013-02-06 07:53:00
1:53 AM,12.0,8.1,84,29.96,10.0,NW,5.8,-,N/A,,Clear,310,2013-02-06 08:53:00
2:53 AM,12.9,8.1,81,29.95,10.0,Calm,Calm,-,N/A,,Clear,0,2013-02-06 09:53:00
3:53 AM,8.1,5.0,87,29.97,10.0,Variable,3.5,-,N/A,,Clear,0,2013-02-06 10:53:00
4:53 AM,10.0,6.1,84,29.97,10.0,Calm,Calm,-,N/A,,Clear,0,2013-02-06 11:53:00
5:53 AM,10.0,6.1,84,30.01,10.0,Calm,Calm,-,N/A,,Clear,0,2013-02-06 12:53:00
6:53 AM,7.0,3.9,87,30.08,10.0,ESE,3.5,-,N/A,,Clear,110,2013-02-06 13:53:00
7:53 AM,5.0,3.2,92,29.94,10.0,Calm,Calm,-,N/A,,Clear,0,2013-02-06 14:53:00
8:53 AM,14.0,10.0,84,30.10,10.0,Calm,Calm,-,N/A,,Clear,0,2013-02-06 15:53:00
9:53 AM,17.1,10.0,74,30.11,10.0,SE,3.5,-,N/A,,Clear,140,2013-02-06 16:53:00
10:53 AM,21.9,12.9,68,30.10,10.0,SSE,4.6,-,N/A,,Clear,150,2013-02-06 17:53:00
11:53 AM,27.0,15.1,61,30.09,10.0,SE,4.6,-,N/A,,Clear,130,2013-02-06 18:53:00
12:53 PM,34.0,15.1,46,30.05,10.0,Calm,Calm,-,N/A,,Mostly Cloudy,0,2013-02-06 19:53:00
1:53 PM,35.1,17.1,48,30.03,10.0,North,10.4,-,N/A,,Clear,350,2013-02-06 20:53:00
2:53 PM,34.0,16.0,48,30.04,10.0,North,15.0,-,N/A,,Scattered Clouds,350,2013-02-06 21:53:00
3:53 PM,32.0,14.0,48,30.11,10.0,North,15.0,23.0,N/A,,Clear,350,2013-02-06 22:53:00
4:53 PM,30.0,16.0,56,30.13,10.0,North,10.4,-,N/A,,Clear,350,2013-02-06 23:53:00
5:53 PM,21.9,12.9,68,30.19,10.0,North,12.7,-,N/A,,Clear,350,2013-02-07 00:53:00
6:53 PM,19.0,12.0,74,30.25,10.0,NNW,12.7,-,N/A,,Clear,340,2013-02-07 01:53:00
7:53 PM,17.1,9.0,71,30.29,10.0,North,13.8,-,N/A,,Clear,360,2013-02-07 02:53:00
8:53 PM,15.1,8.1,74,30.26,10.0,NNW,8.1,-,N/A,,Clear,330,2013-02-07 03:53:00
9:53 PM,10.9,5.0,77,30.29,10.0,NW,6.9,-,N/A,,Clear,310,2013-02-07 04:53:00
10:53 PM,10.0,3.9,76,30.29,10.0,ENE,8.1,-,N/A,,Clear,60,2013-02-07 05:53:00
11:53 PM,6.1,1.9,83,30.27,10.0,NNW,5.8,-,N/A,,Clear,330,2013-02-07 06:53:00